Regional Weather Roundup
Issued by NWS

Home | Current Version | Previous Version | Graphics & Text | Print | Product List | Glossary On
Versions: 1 2 3 4 5 6 7 8 9 10 11 12 13 14 15 16 17 18 19 20 21 22 23 24 25 26 27 28 29 30 31 32 33 34 35 36 37 38 39 40 41 42 43 44 45 46 47 48 49 50
000
ASUS45 KABQ 051310
RWRNM
WEATHER ROUNDUP FOR NEW MEXICO
NATIONAL WEATHER SERVICE ALBUQUERQUE NM
600 AM MST THU MAR 05 2015

NOTE: "FAIR" MEANS FEW OR NO CLOUDS BELOW 12,000 FEET AGL WITH NO
       SIGNIFICANT WEATHER OR OBSTRUCTIONS TO VISION.

      THIS PRODUCT IS RELEASED AS TWO VERSIONS.  ONE VERSION NEAR
      THE TOP OF THE HOUR CONTAINING PRELIMINARY DATA FROM ALBUQUERQUE
      AND OTHER STATIONS.  A FINAL VERSION WITH ADDITIONAL DATA IS
      ISSUED ABOUT 10 MINUTES AFTER THE HOUR.

NMZ501-503-504-510>518-051400-
NORTHWEST PLATEAU/NORTHCENTRAL MOUNTAINS

CITY           SKY/WX    TMP DP  RH WIND       PRES   REMARKS
FARMINGTON     CLEAR     20  12  71 E7        30.35R WCI  11
LOS ALAMOS     PTCLDY    21   8  58 N10       30.31R WCI  10
SANTA FE       CLEAR     16  11  80 NE5       30.33R WCI   9
TAOS           MOCLDY     7  -2  66 NE6       30.34R WCI  -3
ANGEL FIRE     FAIR     -22 -28  75 CALM      30.29R

$$
NMZ402-403-502-505>509-051400-
WESTCENTRAL MOUNTAINS/SOUTHWEST MOUNTAINS

CITY           SKY/WX    TMP DP  RH WIND       PRES   REMARKS
GALLUP         CLEAR     19  13  77 CALM      30.33R
GRANTS         CLEAR     13   9  87 W5        30.35R WCI   5
SILVER CITY    CLEAR     27  14  59 W3        30.30R

$$
NMZ407-409-411-412-051400-
SOUTHERN DESERTS

CITY           SKY/WX    TMP DP  RH WIND       PRES   REMARKS
LORDSBURG      FAIR      32  23  69 SE14      30.29R WCI  22
DEMING         CLEAR     31  23  72 E14       30.33R WCI  21
LAS CRUCES     CLEAR     28  24  86 SW7       30.34R WCI  21
HOLLOMAN AFB   CLEAR     27  21  79 S10       30.35R WCI  17
ALAMOGORDO     CLEAR     28  23  80 S10       30.37R WCI  19
T OR C         CLEAR     26  18  71 N7        30.35R WCI  18

$$
NMZ519>523-051400-
CENTRAL VALLEYS/CENTRAL HIGHLANDS

CITY           SKY/WX    TMP DP  RH WIND       PRES   REMARKS
ALBUQUERQUE    CLEAR     23  17  78 N6        30.36R WCI  16
DOUBLE EAGLE   CLEAR     19  16  86 N12       30.34R WCI   7
MORIARTY ARPT  CLOUDY    18  15  88 CALM      30.35R
CLINES CORNERS CLOUDY    17  13  84 NW13      30.26R FOG     WCI   4
BELEN          FAIR      17  14  86 W5        30.37R WCI  10
SOCORRO          N/A     21  19  89 NW3       30.37R

$$
NMZ524>526-539-540-051400-
SOUTHCENTRAL MOUNTAINS

CITY           SKY/WX    TMP DP  RH WIND       PRES   REMARKS
RUIDOSO        FOG       14  10  85 CALM      30.33R VSB 1/2

$$
NMZ527>531-051400-
NORTHEAST HIGHLANDS/NORTHEAST PLAINS

CITY           SKY/WX    TMP DP  RH WIND       PRES   REMARKS
LAS VEGAS      FOG       11   9  92 SW9       30.28R VSB 1/4 WCI  -2
RATON          PTCLDY    -4  -8  83 N7        30.29R WCI -18
CLAYTON        PTCLDY    12   6  77 W14       30.30S WCI  -3

$$
NMZ532>537-051400-
EASTCENTRAL PLAINS

CITY           SKY/WX    TMP DP  RH WIND       PRES   REMARKS
TUCUMCARI      CLEAR     14  11  87 W5        30.42R WCI   6
CANNON AFB     CLEAR     17  14  88 W2        30.42R
CLOVIS AIRPORT CLEAR     16  12  86 CALM      30.42R

$$
NMZ028-029-538-051400-
SOUTHEAST PLAINS

CITY           SKY/WX    TMP DP  RH WIND       PRES   REMARKS
ROSWELL        CLOUDY    27  20  75 CALM      30.48R
ARTESIA        CLOUDY    27  25  93 CALM      30.50R
CARLSBAD       CLOUDY    28  20  71 CALM      30.49R
HOBBS          CLOUDY    25  18  74 N7        30.48R WCI  17


$$


USA.gov is the U.S. government's official web portal to all federal, state and local government web resources and services.